User: anonymous   Login
Location: Oshawa
(43.9000°N, 78.8670°W)
Time: 04:38:49
(UTC-04:00)
Language:

Iridium 54 - Orbit

View from above orbital plane
View from above orbital plane
View from above satellite
View from above satellite

Ground track
Ground track

The orbit data is extracted from the following two-line orbital elements,

1 25171U 98010C   15214.24008535  .00000243  00000-0  79806-4 0  9997
2 25171 086.3959 276.6699 0002252 094.0302 266.1151 14.34220193913758
Epoch (UTC): 02 August 2015 05:45:43
Eccentricity: 0.0002252
inclination: 86.3959°
perigee height: 776 km
apogee height: 779 km
right ascension of ascending node: 276.6699°
argument of perigee: 94.0302°
revolutions per day: 14.34220193
mean anomaly at epoch: 266.1151°
orbit number at epoch: 91375

The dashed part of the orbit path shows where the satellite is in the earth's shadow,  

DLR